TimeEST,TemperatureF,Dew PointF,Humidity,Sea Level PressureIn,VisibilityMPH,Wind Direction,Wind SpeedMPH,Gust SpeedMPH,PrecipitationIn,Events,Conditions,WindDirDegrees,DateUTC
12:56 AM,32.0,28.0,85,30.24,10.0,SSE,5.8,-,N/A,,Scattered Clouds,150,2013-01-09 05:56:00
1:56 AM,37.0,30.0,76,30.23,10.0,South,8.1,-,N/A,,Scattered Clouds,190,2013-01-09 06:56:00
2:56 AM,39.9,30.9,70,30.22,10.0,South,12.7,-,N/A,,Scattered Clouds,190,2013-01-09 07:56:00
3:56 AM,39.9,32.0,73,30.22,10.0,South,13.8,-,N/A,,Overcast,190,2013-01-09 08:56:00
4:56 AM,39.9,32.0,73,30.20,9.0,South,12.7,-,0.00,Rain,Light Rain,190,2013-01-09 09:56:00
5:56 AM,39.9,33.1,77,30.22,10.0,SSW,11.5,-,0.00,,Overcast,210,2013-01-09 10:56:00
6:56 AM,41.0,33.1,73,30.25,10.0,SW,12.7,-,0.00,Rain,Light Rain,220,2013-01-09 11:56:00
7:56 AM,39.9,34.0,79,30.26,9.0,SSW,9.2,-,0.01,Rain,Light Rain,200,2013-01-09 12:56:00
8:56 AM,39.9,37.0,89,30.30,8.0,SW,12.7,-,0.05,,Mostly Cloudy,220,2013-01-09 13:56:00
10:56 AM,39.9,37.9,93,30.35,7.0,WSW,17.3,-,N/A,,Scattered Clouds,250,2013-01-09 15:56:00
11:08 AM,41.0,37.4,87,30.33,7.0,WSW,15.0,-,N/A,,Mostly Cloudy,250,2013-01-09 16:08:00
11:27 AM,41.0,37.4,87,30.33,7.0,WSW,19.6,-,N/A,,Mostly Cloudy,250,2013-01-09 16:27:00
11:56 AM,42.1,37.9,85,30.35,8.0,West,15.0,-,N/A,,Scattered Clouds,260,2013-01-09 16:56:00
12:56 PM,43.0,37.9,82,30.34,9.0,West,16.1,-,N/A,,Mostly Cloudy,260,2013-01-09 17:56:00
1:56 PM,44.1,37.9,79,30.34,10.0,WSW,15.0,-,N/A,,Mostly Cloudy,250,2013-01-09 18:56:00
2:56 PM,46.0,37.0,71,30.35,10.0,WSW,13.8,-,N/A,,Mostly Cloudy,250,2013-01-09 19:56:00
3:56 PM,44.1,36.0,73,30.38,10.0,WSW,12.7,-,N/A,,Mostly Cloudy,250,2013-01-09 20:56:00
4:56 PM,41.0,35.1,79,30.40,10.0,WSW,11.5,-,N/A,,Mostly Cloudy,250,2013-01-09 21:56:00
5:56 PM,37.9,34.0,86,30.42,10.0,WSW,9.2,-,N/A,,Mostly Cloudy,250,2013-01-09 22:56:00
6:56 PM,37.0,33.1,86,30.45,10.0,WSW,9.2,-,N/A,,Mostly Cloudy,240,2013-01-09 23:56:00
7:56 PM,36.0,33.1,89,30.47,9.0,SW,8.1,-,N/A,,Scattered Clouds,230,2013-01-10 00:56:00
8:56 PM,37.4,33.8,87,30.46,9.0,SW,8.1,-,N/A,,Partly Cloudy,220,2013-01-10 01:56:00
9:56 PM,37.0,33.1,86,30.50,10.0,SW,6.9,-,N/A,,Scattered Clouds,230,2013-01-10 02:56:00
10:56 PM,35.1,30.9,85,30.53,10.0,SW,8.1,-,N/A,,Partly Cloudy,230,2013-01-10 03:56:00
11:56 PM,34.0,30.9,89,30.54,10.0,WSW,6.9,-,N/A,,Partly Cloudy,240,2013-01-10 04:56:00